Skip Page Navigation
NASA JPL Caltech
NASA Logo - Jet Propulsion Laboratory + View the NASA Portal
+ Near-Earth Object (NEO) Program
Search JPL
JPL Home Earth Solar System Stars & Galaxies Technology
JPL Solar System Dynamics
BODIES ORBITS EPHEMERIDES TOOLS PHYSICAL DATA DISCOVERY FAQ SITE MAP
JPL Small-Body Database Browser
Search: [ help ]  
79149 Kajigamori (1992 UR4)
Classification: Main-belt Asteroid          SPK-ID: 2079149
Ephemeris | Orbit Diagram | Orbital Elements | Physical Parameters | Discovery Circumstances ]

[ show orbit diagram ]
Orbital Elements at Epoch 2456400.5 (2013-Apr-18.0) TDB
Reference: MPO233880 (heliocentric ecliptic J2000)
 Element Value Uncertainty (1-sigma)   Units 
e 0.2336636 n/a  
a 2.2816229 n/a AU
q 1.7484907 n/a AU
i 1.61306 n/a deg
node 291.05982 n/a deg
peri 140.86089 n/a deg
M 318.12371 n/a deg
tp 2456546.9299536
(2013-Sep-11.42995360)
n/a JED
period 1258.8217177
3.45
n/a
n/a
d
yr
n 0.28598172 n/a deg/d
Q 2.8147551 n/a AU
  Orbit Determination Parameters
   # obs. used (total)      440  
   first obs. used      1992-??-??  
   last obs. used      2012-06-14  
   # oppositions      8  
   planetary ephem.      DE403  
   condition code      0  
   fit RMS      0.53  
   data source      MPC:mpn  
   producer      MPCLINUX  

Additional Information
 T_jup = 3.568 

Ephemeris | Orbit Diagram | Orbital Elements | Physical Parameters | Discovery Circumstances ]

Physical Parameter Table
Parameter Symbol Value Units Sigma Reference Notes
absolute magnitude H 15.6 mag n/a MPO233880  

79149 Kajigamori           Discovered 1992 Oct. 27 by T. Seki at Geisei.
Kajigamori is a 1400-meter-high mountain in Otoyo town in Kochi prefecture. Near the summit there is an observatory, attached to a hotel, equipped with a 0.60-m telescope. Famous for the camping ground and beautiful starry nights, the summit is crowded with tourists in summer.
NOTE: some special characters may not display properly (any characters within {} are an attempt to place the proper accent above a character)
Reference: 20080819/MPCPages.arcLast Updated: 2008-08-25

Alternate Designations
 1992 UR4 = 1999 XW96 
Ephemeris | Orbit Diagram | Orbital Elements | Physical Parameters | Discovery Circumstances ]
ABOUT SSD CREDITS/AWARDS PRIVACY/COPYRIGHT GLOSSARY LINKS
FirstGov 2013-May-22 05:22 UT
(server date/time)  
NASA Home Page
Site Manager:   Donald K. Yeomans
Webmaster  Alan B. Chamberlin